QPF
0.07 0.09 0.09 0.08 0.06 0.06 0.06 0.06 0.05 0.05 0.06 0.07 0.06 0.06 0.05 0.04 0.05 0.04 0.02 0.02 0.01 0.01 0.01 0.01 0.01 0.01 0.01 0.02 0.02 0.01 0.01 0.01 0.00 0.00 0.00 0.00 0.00 0.00 0.00 0.00 0.00 0.01 0.01
0.06 0.07 0.09 0.08 0.06 0.06 0.07 0.08 0.07 0.06 0.08 0.09 0.09 0.07 0.05 0.03 0.04 0.05 0.04 0.02 0.01 0.01 0.01 0.01 0.01 0.01 0.02 0.03 0.02 0.02 0.01 0.01 0.01 0.00 0.00 0.00 0.00 0.00 0.01 0.01 0.01 0.01 0.01
0.04 0.05 0.07 0.08 0.08 0.08 0.09 0.10 0.10 0.09 0.10 0.09 0.07 0.07 0.06 0.04 0.04 0.04 0.03 0.02 0.02 0.03 0.03 0.04 0.03 0.02 0.03 0.03 0.03 0.02 0.01 0.01 0.01 0.01 0.00 0.01 0.01 0.01 0.01 0.01 0.01 0.01 0.01
0.03 0.04 0.05 0.06 0.09 0.10 0.11 0.12 0.11 0.09 0.09 0.09 0.08 0.08 0.08 0.06 0.04 0.03 0.04 0.03 0.03 0.04 0.05 0.05 0.05 0.04 0.04 0.04 0.03 0.03 0.03 0.02 0.03 0.02 0.01 0.01 0.01 0.01 0.02 0.02 0.02 0.02 0.02
0.04 0.06 0.07 0.08 0.10 0.13 0.14 0.15 0.13 0.11 0.10 0.11 0.12 0.11 0.08 0.06 0.05 0.05 0.06 0.05 0.05 0.05 0.05 0.05 0.05 0.05 0.04 0.04 0.04 0.04 0.03 0.03 0.03 0.02 0.01 0.01 0.01 0.01 0.02 0.02 0.02 0.02 0.02
0.07 0.07 0.09 0.12 0.12 0.12 0.12 0.15 0.14 0.11 0.10 0.11 0.11 0.10 0.08 0.07 0.07 0.08 0.07 0.06 0.05 0.05 0.04 0.04 0.04 0.04 0.04 0.05 0.05 0.04 0.03 0.02 0.02 0.01 0.01 0.01 0.01 0.01 0.01 0.01 0.01 0.01 0.01
0.09 0.09 0.10 0.12 0.14 0.13 0.12 0.18 0.17 0.14 0.11 0.12 0.10 0.08 0.07 0.07 0.07 0.06 0.05 0.05 0.05 0.04 0.03 0.03 0.02 0.02 0.02 0.02 0.02 0.03 0.02 0.02 0.01 0.01 0.01 0.01 0.01 0.00 0.01 0.01 0.01 0.01 0.01
0.08 0.07 0.08 0.09 0.12 0.13 0.14 0.18 0.19 0.18 0.17 0.15 0.13 0.10 0.08 0.06 0.05 0.04 0.05 0.05 0.04 0.03 0.02 0.02 0.02 0.01 0.00 0.00 0.00 0.01 0.01 0.01 0.01 0.01 0.01 0.01 0.01 0.01 0.01 0.01 0.01 0.01 0.01
0.08 0.08 0.09 0.11 0.14 0.16 0.18 0.20 0.22 0.22 0.19 0.15 0.12 0.09 0.08 0.06 0.06 0.06 0.05 0.05 0.04 0.02 0.01 0.01 0.01 0.01 0.00 0.00 0.00 0.00 0.00 0.00 0.01 0.01 0.01 0.01 0.01 0.01 0.01 0.01 0.01 0.01 0.00
0.10 0.10 0.12 0.15 0.17 0.19 0.19 0.20 0.21 0.19 0.15 0.11 0.10 0.08 0.06 0.06 0.05 0.04 0.03 0.03 0.02 0.02 0.02 0.02 0.02 0.01 0.01 0.00 0.00 0.00 0.00 0.00 0.00 0.00 0.00 0.00 0.00 0.00 0.00 0.00 0.01 0.01 0.01
0.14 0.16 0.17 0.16 0.17 0.18 0.17 0.15 0.13 0.11 0.10 0.09 0.07 0.07 0.06 0.06 0.06 0.05 0.04 0.04 0.04 0.04 0.03 0.02 0.01 0.01 0.00 0.00 0.00 0.00 0.00 0.00 0.00 0.00 0.00 0.00 0.00 0.00 0.00 0.00 0.00 0.01 0.01
0.17 0.18 0.18 0.15 0.14 0.14 0.15 0.14 0.11 0.10 0.10 0.10 0.10 0.10 0.07 0.05 0.05 0.04 0.03 0.03 0.01 0.01 0.00 0.00 0.00 0.00 0.00 0.00 0.00 0.00 0.00 0.00 0.00 0.00 0.00 0.00 0.00 0.00 0.00 0.00 0.00 0.00 0.01
0.17 0.17 0.15 0.14 0.16 0.16 0.14 0.12 0.10 0.08 0.07 0.07 0.06 0.05 0.04 0.02 0.02 0.02 0.01 0.01 0.01 0.00 0.01 0.01 0.01 0.01 0.00 0.00 0.00 0.00 0.00 0.00 0.00 0.00 0.00 0.00 0.00 0.00 0.00 0.00 0.00 0.00 0.00
0.13 0.13 0.14 0.14 0.14 0.13 0.11 0.09 0.08 0.08 0.07 0.06 0.05 0.04 0.03 0.02 0.02 0.02 0.02 0.02 0.02 0.02 0.02 0.01 0.01 0.01 0.00 0.00 0.00 0.00 0.00 0.00 0.00 0.00 0.00 0.00 0.00 0.00 0.00 0.00 0.00 0.00 0.00
0.08 0.08 0.09 0.07 0.06 0.05 0.04 0.04 0.05 0.06 0.06 0.06 0.05 0.04 0.03 0.03 0.03 0.02 0.01 0.01 0.01 0.01 0.00 0.00 0.00 0.00 0.00 0.00 0.00 0.00 0.00 0.00 0.00 0.00 0.00 0.00 0.00 0.00 0.00 0.00 0.00 0.00 0.00
0.09 0.07 0.05 0.04 0.03 0.03 0.03 0.04 0.04 0.04 0.03 0.02 0.01 0.01 0.01 0.01 0.01 0.01 0.00 0.00 0.00 0.00 0.00 0.00 0.00 0.00 0.00 0.00 0.00 0.00 0.00 0.00 0.00 0.00 0.00 0.00 0.00 0.00 0.00 0.01 0.01 0.01 0.01
0.07 0.05 0.04 0.03 0.02 0.03 0.03 0.03 0.02 0.01 0.01 0.01 0.01 0.00 0.00 0.00 0.00 0.00 0.00 0.00 0.00 0.00 0.00 0.00 0.00 0.00 0.00 0.00 0.00 0.00 0.00 0.00 0.00 0.00 0.00 0.00 0.00 0.00 0.00 0.01 0.01 0.01 0.01
0.04 0.04 0.03 0.03 0.02 0.02 0.01 0.01 0.01 0.01 0.01 0.01 0.00 0.00 0.00 0.00 0.00 0.00 0.00 0.00 0.00 0.00 0.00 0.00 0.00 0.00 0.00 0.00 0.00 0.00 0.00 0.00 0.00 0.00 0.00 0.00 0.00 0.00 0.00 0.00 0.00 0.00 0.00
0.03 0.02 0.02 0.02 0.01 0.01 0.01 0.01 0.00 0.00 0.00 0.00 0.00 0.00 0.00 0.00 0.00 0.00 0.00 0.00 0.00 0.00 0.00 0.00 0.00 0.00 0.00 0.00 0.00 0.00 0.00 0.00 0.00 0.00 0.00 0.00 0.00 0.00 0.00 0.00 0.00 0.00 0.01
0.02 0.02 0.01 0.01 0.01 0.01 0.01 0.01 0.01 0.00 0.00 0.00 0.00 0.00 0.00 0.00 0.00 0.00 0.00 0.00 0.00 0.00 0.00 0.00 0.00 0.00 0.00 0.00 0.00 0.00 0.00 0.00 0.00 0.00 0.00 0.00 0.00 0.00 0.00 0.00 0.00 0.01 0.01
0.01 0.01 0.01 0.01 0.01 0.01 0.00 0.00 0.00 0.00 0.00 0.00 0.00 0.00 0.00 0.00 0.00 0.00 0.00 0.00 0.00 0.00 0.00 0.00 0.00 0.00 0.00 0.00 0.00 0.00 0.00 0.00 0.00 0.00 0.00 0.00 0.00 0.00 0.00 0.00 0.00 0.01 0.01
0.00 0.00 0.00 0.00 0.00 0.00 0.00 0.00 0.00 0.00 0.00 0.00 0.00 0.00 0.00 0.00 0.00 0.00 0.00 0.00 0.00 0.00 0.00 0.00 0.00 0.00 0.00 0.00 0.00 0.00 0.00 0.00 0.00 0.00 0.00 0.00 0.00 0.00 0.01 0.00 0.00 0.01 0.01
0.00 0.00 0.00 0.00 0.00 0.00 0.00 0.00 0.00 0.00 0.00 0.00 0.00 0.00 0.00 0.00 0.00 0.00 0.00 0.00 0.00 0.00 0.00 0.00 0.00 0.00 0.00 0.00 0.00 0.00 0.00 0.00 0.00 0.00 0.00 0.00 0.00 0.01 0.01 0.01 0.01 0.01 0.01
0.00 0.00 0.00 0.00 0.00 0.00 0.00 0.00 0.00 0.00 0.00 0.00 0.00 0.00 0.00 0.00 0.00 0.00 0.00 0.00 0.00 0.00 0.00 0.00 0.00 0.00 0.00 0.00 0.00 0.00 0.00 0.00 0.00 0.00 0.00 0.00 0.00 0.01 0.01 0.01 0.01 0.01 0.01
0.00 0.00 0.00 0.00 0.00 0.00 0.00 0.00 0.00 0.00 0.00 0.00 0.00 0.00 0.00 0.00 0.00 0.00 0.00 0.00 0.00 0.00 0.00 0.00 0.00 0.00 0.00 0.00 0.00 0.00 0.00 0.00 0.00 0.00 0.00 0.00 0.00 0.01 0.01 0.01 0.00 0.01 0.01
0.00 0.00 0.00 0.00 0.00 0.00 0.00 0.00 0.00 0.00 0.00 0.00 0.01 0.01 0.01 0.00 0.00 0.00 0.00 0.00 0.00 0.00 0.00 0.00 0.00 0.00 0.00 0.00 0.00 0.00 0.00 0.00 0.00 0.00 0.00 0.00 0.00 0.00 0.00 0.00 0.00 0.00 0.01
MSLP
1006.76 1007.12 1007.68 1008.40 1009.23 1010.11 1010.98 1011.81 1012.58 1013.28 1013.91 1014.48 1014.98 1015.42 1015.80 1016.14 1016.42 1016.67 1016.89 1017.10 1017.30 1017.50 1017.70 1017.90 1018.08 1018.24 1018.36 1018.44 1018.48 1018.47 1018.43 1018.36 1018.26 1018.14 1017.98 1017.81 1017.61 1017.40 1017.18 1016.97 1016.79 1016.65 1016.56
1006.85 1007.14 1007.66 1008.35 1009.17 1010.05 1010.96 1011.84 1012.66 1013.41 1014.07 1014.64 1015.13 1015.55 1015.89 1016.18 1016.43 1016.65 1016.85 1017.05 1017.25 1017.44 1017.64 1017.82 1017.99 1018.13 1018.25 1018.33 1018.38 1018.40 1018.39 1018.37 1018.32 1018.25 1018.14 1017.98 1017.79 1017.56 1017.29 1017.02 1016.75 1016.52 1016.34
1007.23 1007.51 1008.00 1008.66 1009.46 1010.34 1011.25 1012.14 1012.98 1013.73 1014.39 1014.94 1015.40 1015.76 1016.05 1016.29 1016.49 1016.68 1016.86 1017.05 1017.26 1017.46 1017.68 1017.88 1018.06 1018.22 1018.34 1018.43 1018.49 1018.53 1018.55 1018.55 1018.53 1018.48 1018.39 1018.24 1018.04 1017.79 1017.49 1017.17 1016.84 1016.54 1016.27
1007.88 1008.17 1008.64 1009.28 1010.04 1010.90 1011.78 1012.65 1013.47 1014.20 1014.83 1015.35 1015.75 1016.06 1016.29 1016.48 1016.63 1016.79 1016.95 1017.15 1017.37 1017.61 1017.85 1018.09 1018.31 1018.49 1018.64 1018.74 1018.82 1018.86 1018.88 1018.87 1018.85 1018.79 1018.68 1018.53 1018.32 1018.05 1017.74 1017.39 1017.03 1016.68 1016.37
1008.68 1009.00 1009.47 1010.09 1010.81 1011.62 1012.46 1013.29 1014.07 1014.76 1015.35 1015.82 1016.18 1016.43 1016.62 1016.75 1016.87 1017.00 1017.16 1017.37 1017.61 1017.89 1018.18 1018.46 1018.72 1018.94 1019.10 1019.22 1019.28 1019.31 1019.30 1019.26 1019.19 1019.10 1018.97 1018.79 1018.57 1018.29 1017.98 1017.63 1017.27 1016.92 1016.59
1009.52 1009.88 1010.36 1010.94 1011.63 1012.38 1013.17 1013.95 1014.68 1015.34 1015.89 1016.33 1016.66 1016.88 1017.03 1017.14 1017.24 1017.36 1017.52 1017.73 1018.00 1018.31 1018.63 1018.96 1019.25 1019.49 1019.66 1019.77 1019.81 1019.79 1019.73 1019.64 1019.51 1019.36 1019.18 1018.98 1018.74 1018.47 1018.17 1017.85 1017.53 1017.20 1016.88
1010.29 1010.69 1011.17 1011.74 1012.38 1013.08 1013.82 1014.56 1015.26 1015.89 1016.43 1016.86 1017.18 1017.40 1017.55 1017.65 1017.74 1017.86 1018.02 1018.24 1018.53 1018.85 1019.20 1019.54 1019.84 1020.08 1020.25 1020.32 1020.32 1020.25 1020.12 1019.95 1019.76 1019.54 1019.32 1019.09 1018.84 1018.58 1018.32 1018.04 1017.76 1017.48 1017.20
1010.90 1011.34 1011.83 1012.38 1012.99 1013.66 1014.37 1015.08 1015.77 1016.40 1016.96 1017.41 1017.75 1017.99 1018.16 1018.27 1018.38 1018.50 1018.66 1018.88 1019.16 1019.48 1019.82 1020.15 1020.44 1020.65 1020.79 1020.82 1020.77 1020.63 1020.44 1020.20 1019.94 1019.67 1019.40 1019.14 1018.90 1018.66 1018.43 1018.20 1017.97 1017.74 1017.50
1011.32 1011.80 1012.30 1012.86 1013.46 1014.12 1014.82 1015.53 1016.23 1016.89 1017.48 1017.97 1018.35 1018.64 1018.84 1018.99 1019.11 1019.24 1019.39 1019.60 1019.86 1020.15 1020.45 1020.74 1020.99 1021.17 1021.26 1021.24 1021.14 1020.95 1020.70 1020.41 1020.09 1019.79 1019.49 1019.22 1018.98 1018.76 1018.55 1018.36 1018.17 1017.97 1017.76
1011.60 1012.11 1012.65 1013.22 1013.84 1014.51 1015.22 1015.95 1016.68 1017.37 1018.00 1018.54 1018.98 1019.32 1019.56 1019.74 1019.88 1020.01 1020.16 1020.34 1020.56 1020.80 1021.06 1021.29 1021.49 1021.61 1021.65 1021.60 1021.45 1021.22 1020.94 1020.62 1020.29 1019.97 1019.66 1019.39 1019.14 1018.93 1018.73 1018.55 1018.37 1018.18 1017.96
1011.81 1012.37 1012.94 1013.54 1014.19 1014.89 1015.63 1016.39 1017.15 1017.88 1018.55 1019.13 1019.61 1019.99 1020.27 1020.48 1020.63 1020.76 1020.89 1021.04 1021.21 1021.41 1021.60 1021.78 1021.92 1021.99 1022.00 1021.91 1021.75 1021.51 1021.23 1020.91 1020.58 1020.26 1019.96 1019.69 1019.44 1019.22 1019.01 1018.81 1018.60 1018.38 1018.13
1012.05 1012.65 1013.26 1013.91 1014.60 1015.33 1016.09 1016.88 1017.67 1018.42 1019.11 1019.72 1020.22 1020.62 1020.92 1021.14 1021.30 1021.42 1021.53 1021.65 1021.79 1021.93 1022.07 1022.20 1022.29 1022.34 1022.31 1022.22 1022.06 1021.85 1021.58 1021.29 1021.00 1020.70 1020.41 1020.14 1019.89 1019.64 1019.39 1019.14 1018.88 1018.59 1018.28
1012.41 1013.04 1013.70 1014.39 1015.11 1015.87 1016.66 1017.45 1018.24 1018.98 1019.67 1020.27 1020.78 1021.17 1021.48 1021.69 1021.85 1021.97 1022.06 1022.16 1022.26 1022.37 1022.48 1022.57 1022.64 1022.66 1022.64 1022.55 1022.42 1022.24 1022.02 1021.78 1021.52 1021.26 1020.99 1020.72 1020.44 1020.16 1019.85 1019.53 1019.19 1018.82 1018.43
1012.93 1013.59 1014.28 1015.00 1015.74 1016.52 1017.30 1018.08 1018.85 1019.56 1020.22 1020.79 1021.26 1021.63 1021.92 1022.13 1022.28 1022.39 1022.48 1022.57 1022.66 1022.74 1022.83 1022.91 1022.97 1022.99 1022.97 1022.92 1022.82 1022.68 1022.51 1022.32 1022.11 1021.87 1021.62 1021.35 1021.05 1020.72 1020.36 1019.96 1019.53 1019.07 1018.59
1013.62 1014.29 1015.00 1015.73 1016.48 1017.24 1018.01 1018.76 1019.47 1020.14 1020.73 1021.25 1021.67 1022.01 1022.27 1022.46 1022.61 1022.72 1022.82 1022.90 1022.99 1023.08 1023.17 1023.24 1023.30 1023.33 1023.33 1023.30 1023.23 1023.14 1023.01 1022.86 1022.69 1022.48 1022.25 1021.97 1021.64 1021.27 1020.85 1020.38 1019.86 1019.33 1018.77
1014.44 1015.11 1015.81 1016.53 1017.27 1018.00 1018.73 1019.43 1020.09 1020.69 1021.22 1021.67 1022.05 1022.34 1022.58 1022.76 1022.90 1023.02 1023.12 1023.22 1023.32 1023.42 1023.51 1023.59 1023.65 1023.69 1023.70 1023.69 1023.64 1023.58 1023.48 1023.36 1023.21 1023.02 1022.79 1022.50 1022.15 1021.74 1021.27 1020.75 1020.18 1019.59 1018.98
1015.33 1015.97 1016.65 1017.35 1018.06 1018.76 1019.44 1020.09 1020.69 1021.23 1021.70 1022.10 1022.42 1022.69 1022.90 1023.07 1023.21 1023.34 1023.46 1023.57 1023.68 1023.79 1023.89 1023.97 1024.03 1024.06 1024.08 1024.06 1024.03 1023.97 1023.88 1023.77 1023.63 1023.44 1023.21 1022.91 1022.55 1022.11 1021.62 1021.06 1020.46 1019.84 1019.20
1016.23 1016.83 1017.47 1018.14 1018.81 1019.48 1020.13 1020.73 1021.28 1021.77 1022.20 1022.55 1022.85 1023.09 1023.28 1023.45 1023.59 1023.73 1023.85 1023.98 1024.10 1024.21 1024.30 1024.37 1024.42 1024.44 1024.44 1024.42 1024.37 1024.30 1024.21 1024.09 1023.94 1023.74 1023.50 1023.19 1022.82 1022.38 1021.87 1021.30 1020.70 1020.06 1019.41
1017.08 1017.65 1018.25 1018.89 1019.53 1020.17 1020.79 1021.36 1021.88 1022.35 1022.74 1023.08 1023.35 1023.57 1023.76 1023.92 1024.07 1024.20 1024.33 1024.45 1024.56 1024.65 1024.73 1024.78 1024.81 1024.81 1024.78 1024.73 1024.66 1024.57 1024.46 1024.32 1024.16 1023.95 1023.69 1023.38 1022.99 1022.55 1022.04 1021.47 1020.86 1020.23 1019.58
1017.88 1018.41 1018.99 1019.59 1020.22 1020.84 1021.44 1022.01 1022.52 1022.97 1023.35 1023.67 1023.94 1024.15 1024.33 1024.48 1024.62 1024.74 1024.85 1024.95 1025.04 1025.11 1025.16 1025.18 1025.18 1025.14 1025.09 1025.01 1024.91 1024.79 1024.66 1024.50 1024.31 1024.08 1023.81 1023.48 1023.09 1022.64 1022.13 1021.56 1020.95 1020.32 1019.67
1018.64 1019.14 1019.70 1020.29 1020.91 1021.53 1022.12 1022.68 1023.19 1023.64 1024.02 1024.34 1024.59 1024.79 1024.96 1025.09 1025.20 1025.30 1025.38 1025.44 1025.49 1025.53 1025.54 1025.53 1025.49 1025.42 1025.34 1025.24 1025.11 1024.97 1024.81 1024.63 1024.42 1024.18 1023.88 1023.53 1023.13 1022.66 1022.14 1021.56 1020.95 1020.30 1019.64
1019.39 1019.88 1020.43 1021.02 1021.63 1022.24 1022.84 1023.39 1023.90 1024.34 1024.71 1025.02 1025.26 1025.44 1025.58 1025.68 1025.75 1025.81 1025.85 1025.87 1025.88 1025.87 1025.84 1025.79 1025.73 1025.64 1025.53 1025.41 1025.27 1025.11 1024.94 1024.74 1024.51 1024.24 1023.92 1023.54 1023.11 1022.62 1022.07 1021.47 1020.83 1020.16 1019.48
1020.15 1020.65 1021.19 1021.78 1022.38 1022.99 1023.57 1024.12 1024.61 1025.03 1025.38 1025.66 1025.87 1026.02 1026.12 1026.18 1026.21 1026.22 1026.21 1026.19 1026.15 1026.10 1026.04 1025.97 1025.88 1025.77 1025.65 1025.52 1025.37 1025.21 1025.02 1024.80 1024.55 1024.26 1023.91 1023.50 1023.03 1022.50 1021.92 1021.28 1020.60 1019.90 1019.18
1020.95 1021.45 1021.99 1022.57 1023.16 1023.74 1024.29 1024.80 1025.26 1025.64 1025.95 1026.19 1026.36 1026.47 1026.53 1026.55 1026.53 1026.50 1026.45 1026.38 1026.31 1026.23 1026.15 1026.05 1025.94 1025.83 1025.70 1025.57 1025.42 1025.24 1025.04 1024.81 1024.54 1024.22 1023.84 1023.39 1022.89 1022.31 1021.68 1021.00 1020.28 1019.53 1018.78
1021.76 1022.26 1022.79 1023.34 1023.90 1024.44 1024.94 1025.40 1025.79 1026.12 1026.37 1026.56 1026.68 1026.74 1026.76 1026.74 1026.69 1026.63 1026.55 1026.46 1026.37 1026.27 1026.17 1026.06 1025.95 1025.83 1025.70 1025.55 1025.40 1025.21 1025.01 1024.76 1024.46 1024.11 1023.70 1023.22 1022.67 1022.06 1021.38 1020.66 1019.90 1019.12 1018.33
1022.54 1023.03 1023.54 1024.05 1024.55 1025.02 1025.45 1025.83 1026.15 1026.41 1026.60 1026.72 1026.80 1026.82 1026.81 1026.77 1026.70 1026.63 1026.54 1026.45 1026.35 1026.24 1026.14 1026.02 1025.90 1025.78 1025.64 1025.49 1025.32 1025.12 1024.90 1024.63 1024.31 1023.94 1023.50 1022.99 1022.41 1021.76 1021.05 1020.30 1019.51 1018.71 1017.90
Thickness
5732 5730 5728 5726 5726 5725 5723 5722 5721 5720 5720 5719 5718 5717 5716 5716 5715 5713 5712 5711 5710 5709 5708 5707 5706 5706 5704 5703 5703 5701 5699 5696 5692 5694 5698 5702 5703 5702 5702 5700 5699 5697 5696
5732 5729 5727 5725 5723 5722 5721 5721 5720 5719 5718 5717 5716 5715 5714 5713 5712 5710 5708 5707 5706 5704 5703 5702 5701 5701 5698 5697 5696 5695 5693 5692 5689 5687 5689 5691 5693 5693 5693 5691 5691 5690 5689
5731 5728 5724 5722 5721 5719 5719 5719 5718 5716 5715 5714 5712 5711 5709 5708 5707 5706 5704 5703 5701 5700 5699 5697 5695 5694 5692 5691 5689 5687 5686 5686 5684 5681 5680 5681 5681 5682 5681 5681 5681 5679 5679
5729 5726 5723 5721 5719 5718 5717 5716 5714 5712 5711 5709 5708 5707 5705 5704 5703 5701 5700 5698 5696 5695 5693 5691 5689 5687 5685 5684 5682 5680 5679 5677 5675 5672 5670 5669 5669 5669 5668 5666 5666 5666 5666
5728 5724 5722 5720 5718 5715 5713 5712 5710 5708 5706 5704 5702 5701 5699 5698 5698 5697 5695 5693 5690 5687 5685 5683 5681 5680 5679 5677 5675 5671 5669 5666 5664 5661 5658 5656 5655 5654 5652 5652 5651 5652 5653
5727 5723 5721 5718 5715 5712 5710 5707 5705 5702 5700 5698 5696 5694 5692 5692 5691 5691 5690 5687 5683 5680 5676 5673 5672 5670 5669 5667 5665 5662 5660 5656 5652 5649 5646 5643 5642 5641 5640 5639 5637 5636 5635
5724 5721 5718 5715 5711 5709 5707 5702 5699 5696 5693 5690 5687 5686 5684 5683 5684 5684 5681 5678 5674 5670 5667 5663 5662 5659 5657 5655 5652 5650 5647 5645 5642 5638 5634 5631 5629 5628 5626 5624 5622 5619 5619
5722 5720 5716 5713 5709 5705 5701 5697 5693 5690 5686 5682 5679 5677 5675 5673 5674 5673 5670 5667 5662 5658 5655 5652 5648 5645 5645 5642 5639 5636 5632 5630 5628 5625 5621 5618 5616 5614 5612 5609 5606 5604 5604
5719 5716 5713 5709 5704 5699 5695 5690 5686 5682 5677 5672 5669 5666 5664 5662 5662 5661 5659 5655 5649 5645 5642 5639 5636 5633 5631 5629 5626 5621 5618 5615 5614 5611 5608 5605 5603 5600 5597 5593 5589 5586 5585
5714 5712 5708 5705 5700 5693 5688 5683 5678 5673 5667 5662 5657 5654 5653 5650 5650 5649 5647 5643 5637 5631 5628 5625 5623 5620 5618 5615 5611 5607 5602 5598 5596 5595 5592 5589 5586 5583 5579 5575 5570 5566 5563
5709 5705 5701 5697 5693 5687 5680 5675 5669 5663 5657 5651 5646 5642 5639 5638 5637 5636 5634 5629 5624 5620 5616 5612 5609 5606 5604 5601 5597 5592 5588 5584 5580 5576 5573 5570 5566 5563 5559 5555 5551 5547 5543
5701 5696 5691 5688 5684 5677 5671 5664 5659 5653 5646 5640 5635 5629 5626 5624 5622 5620 5618 5615 5611 5607 5602 5599 5596 5593 5590 5586 5582 5577 5573 5569 5564 5558 5553 5548 5545 5541 5538 5534 5531 5527 5524
5687 5682 5678 5675 5670 5665 5659 5652 5646 5641 5636 5628 5623 5617 5611 5609 5607 5606 5603 5600 5597 5594 5589 5587 5583 5579 5575 5570 5566 5561 5556 5551 5545 5538 5532 5527 5524 5521 5518 5515 5512 5509 5507
5673 5667 5663 5658 5652 5648 5644 5640 5636 5630 5624 5618 5611 5605 5599 5595 5593 5591 5589 5586 5583 5579 5576 5573 5569 5564 5558 5553 5548 5542 5537 5532 5525 5518 5513 5509 5506 5502 5499 5496 5493 5490 5488
5658 5652 5646 5641 5636 5631 5626 5622 5620 5616 5613 5607 5599 5594 5589 5584 5580 5579 5576 5573 5569 5565 5561 5556 5551 5545 5539 5533 5527 5522 5517 5512 5506 5500 5495 5491 5487 5484 5480 5478 5475 5472 5469
5643 5637 5633 5627 5623 5618 5613 5605 5601 5600 5596 5593 5588 5583 5578 5573 5569 5566 5564 5560 5556 5552 5546 5537 5531 5525 5518 5513 5507 5502 5497 5492 5487 5482 5477 5473 5469 5466 5463 5461 5458 5455 5453
5631 5625 5620 5615 5610 5604 5600 5596 5587 5581 5579 5576 5573 5569 5566 5561 5558 5554 5551 5546 5541 5537 5528 5519 5513 5507 5501 5495 5489 5484 5479 5474 5469 5465 5460 5456 5453 5450 5447 5445 5443 5441 5440
5618 5614 5609 5603 5598 5593 5588 5583 5579 5573 5566 5560 5557 5555 5552 5548 5544 5540 5536 5530 5522 5516 5509 5502 5496 5490 5484 5478 5472 5467 5462 5458 5453 5449 5445 5441 5438 5435 5433 5431 5429 5428 5427
5606 5602 5597 5592 5587 5582 5577 5572 5566 5561 5555 5549 5544 5541 5538 5534 5530 5524 5519 5512 5504 5497 5491 5485 5479 5473 5467 5462 5457 5452 5447 5442 5438 5434 5431 5428 5425 5423 5421 5419 5418 5417 5417
5594 5592 5587 5582 5576 5571 5566 5560 5555 5549 5544 5538 5533 5528 5524 5519 5512 5506 5501 5494 5488 5481 5475 5470 5464 5458 5453 5448 5443 5438 5433 5429 5425 5421 5419 5416 5414 5412 5410 5409 5408 5408 5408
5583 5580 5577 5572 5566 5561 5556 5550 5544 5538 5532 5526 5520 5516 5511 5504 5496 5490 5484 5479 5473 5467 5461 5455 5450 5444 5439 5435 5430 5425 5421 5417 5413 5410 5408 5406 5404 5402 5401 5400 5400 5400 5401
5571 5567 5564 5559 5555 5550 5544 5538 5532 5526 5520 5513 5507 5502 5497 5490 5483 5476 5471 5465 5460 5455 5449 5443 5437 5432 5427 5423 5418 5414 5409 5406 5403 5400 5398 5397 5395 5394 5393 5392 5392 5393 5395
5560 5556 5551 5547 5542 5538 5532 5526 5520 5513 5507 5500 5494 5488 5482 5475 5469 5464 5458 5453 5448 5443 5437 5432 5427 5421 5417 5412 5408 5404 5400 5397 5394 5392 5389 5388 5387 5386 5385 5385 5386 5388 5389
5550 5545 5540 5535 5530 5524 5519 5513 5507 5501 5495 5488 5482 5475 5469 5463 5458 5452 5447 5442 5437 5432 5426 5421 5416 5411 5407 5403 5399 5396 5393 5390 5387 5385 5383 5381 5380 5380 5380 5380 5381 5382 5384
5539 5534 5528 5523 5518 5512 5506 5500 5494 5488 5482 5476 5470 5464 5458 5452 5447 5441 5436 5432 5427 5422 5417 5412 5407 5403 5399 5395 5391 5388 5386 5383 5381 5379 5377 5375 5374 5373 5374 5374 5375 5377 5379
5528 5522 5516 5511 5506 5500 5494 5488 5481 5476 5470 5465 5459 5453 5448 5443 5437 5433 5428 5423 5418 5413 5409 5404 5399 5395 5391 5388 5385 5382 5379 5377 5376 5374 5372 5370 5369 5368 5368 5369 5370 5372 5374